Location: Kapuskasing
(49.3803°N, 82.4001°W)
Time: 18:56:41
(UTC-04:00)

ISS - Visible Passes

Search period start: 22 July 2019 00:00
Search period end: 01 August 2019 00:00
Orbit: 409 x 418 km, 51.6° (Epoch: 23 July)

Date Brightness Start Highest point End Pass type
(mag) Time Alt. Az. Time Alt. Az. Time Alt. Az.
22 Jul -3.1 00:01:07 10° W 00:04:25 55° N 00:07:42 10° E visible
22 Jul -3.3 01:37:55 10° WNW 01:40:31 51° WNW 01:40:31 51° WNW visible
22 Jul -3.1 23:11:45 10° W 23:15:03 57° N 23:18:22 10° ENE visible
23 Jul -3.7 00:48:36 10° WNW 00:51:57 76° NNE 00:52:23 62° ENE visible
23 Jul -3.3 22:22:22 10° W 22:25:42 64° N 22:29:01 10° ENE visible
23 Jul -3.4 23:59:17 10° WNW 00:02:37 63° N 00:04:24 24° E visible
24 Jul -1.7 01:36:03 10° WNW 01:37:11 19° W 01:37:11 19° W visible
24 Jul -3.2 23:09:55 10° WNW 23:13:14 57° N 23:16:28 10° E visible
25 Jul -3.2 00:46:41 10° WNW 00:49:16 48° W 00:49:16 48° W visible
25 Jul -3.1 22:20:31 10° W 22:23:50 55° N 22:27:08 10° ENE visible
25 Jul -3.9 23:57:20 10° WNW 00:00:41 90° SSW 00:01:24 53° ESE visible
26 Jul -3.6 23:07:59 10° WNW 23:11:20 72° NNE 23:13:33 19° E visible
27 Jul -1.9 00:44:49 10° W 00:46:22 22° W 00:46:22 22° W visible
27 Jul -3.3 22:18:36 10° WNW 22:21:56 61° N 22:25:14 10° E visible
27 Jul -3.5 23:55:22 10° WNW 23:58:33 50° SSW 23:58:33 50° SSW visible
28 Jul -3.8 23:05:57 10° WNW 23:09:18 73° SSW 23:10:46 30° SE visible
29 Jul -1.1 00:43:19 10° W 00:43:35 11° W 00:43:35 11° W visible
29 Jul -3.8 22:16:34 10° WNW 22:19:56 84° NNE 22:23:01 12° ESE visible
29 Jul -2.2 23:53:32 10° W 23:55:50 24° SW 23:55:50 24° SW visible
30 Jul -3.0 23:03:58 10° W 23:07:06 38° SSW 23:08:06 30° S visible
31 Jul -3.5 22:14:30 10° WNW 22:17:47 56° SSW 22:20:24 15° SE visible
31 Jul -1.2 23:52:27 10° WSW 23:53:13 12° WSW 23:53:13 12° WSW visible
